EDW5428 LSZH-LSME

Flight info

Callsign EDW5428
Flight time 0h 19m
Altitude 10000
Route VEBIT T544 WIL
Aircraft A320/M-SDE2E3FGHIJ1RWXY/LB1

Departure

Time 2026-05-06 13:36
Airport Zürich Airport (LSZH)

Arrival

Time 2026-05-06 13:55
Airport Emmen Air Base (LSME)
Time Latitude Longitude Altitude Speed Heading
2026-05-06 13:26 47.45350 8.55755 1407 ft 0 kts
2026-05-06 13:28 47.45332 8.55752 1407 ft 4 kts
2026-05-06 13:28 47.45311 8.55749 1411 ft 3 kts
2026-05-06 13:28 47.45284 8.55745 1414 ft 4 kts 360°
2026-05-06 13:28 47.45265 8.55749 1407 ft 4 kts 289°
2026-05-06 13:29 47.45261 8.55783 1407 ft 2 kts 276°
2026-05-06 13:29 47.45261 8.55787 1407 ft 0 kts 276°
2026-05-06 13:30 47.45261 8.55785 1407 ft 1 kts 276°
2026-05-06 13:31 47.45265 8.55733 1407 ft 8 kts 276°
2026-05-06 13:31 47.45274 8.55617 1413 ft 14 kts 280°
2026-05-06 13:31 47.45367 8.55518 1409 ft 21 kts 334°
2026-05-06 13:31 47.45490 8.55430 1407 ft 18 kts 334°
2026-05-06 13:32 47.45599 8.55354 1406 ft 13 kts 335°
2026-05-06 13:32 47.45668 8.55393 1401 ft 16 kts 84°
2026-05-06 13:32 47.45663 8.55517 1403 ft 20 kts 96°
2026-05-06 13:32 47.45646 8.55754 1409 ft 26 kts 96°
2026-05-06 13:33 47.45627 8.56027 1410 ft 23 kts 97°
2026-05-06 13:33 47.45614 8.56210 1412 ft 14 kts 94°
2026-05-06 13:33 47.45694 8.56275 1413 ft 18 kts
2026-05-06 13:33 47.45836 8.56297 1415 ft 24 kts
2026-05-06 13:34 47.45996 8.56322 1412 ft 15 kts
2026-05-06 13:34 47.46087 8.56361 1414 ft 16 kts 40°
2026-05-06 13:34 47.46141 8.56430 1411 ft 4 kts
2026-05-06 13:34 47.46146 8.56422 1411 ft 0 kts 316°
2026-05-06 13:35 47.46150 8.56417 1411 ft 3 kts 316°
2026-05-06 13:35 47.46306 8.56204 1405 ft 77 kts 317°
2026-05-06 13:35 47.46914 8.55361 1451 ft 152 kts 314°
2026-05-06 13:36 47.47717 8.54283 2296 ft 159 kts 314°
2026-05-06 13:36 47.48551 8.53176 3261 ft 162 kts 314°
2026-05-06 13:36 47.49387 8.52071 4241 ft 162 kts 319°
2026-05-06 13:36 47.50378 8.51148 4940 ft 179 kts 330°
2026-05-06 13:37 47.51531 8.50196 5526 ft 202 kts 330°
2026-05-06 13:37 47.52659 8.48889 6257 ft 219 kts 309°
2026-05-06 13:37 47.53394 8.46864 7154 ft 231 kts 285°
2026-05-06 13:37 47.53492 8.44494 8220 ft 235 kts 260°
2026-05-06 13:38 47.52927 8.42197 9193 ft 244 kts 243°
2026-05-06 13:38 47.52046 8.40063 9672 ft 244 kts 227°
2026-05-06 13:38 47.50679 8.38559 9835 ft 262 kts 205°
2026-05-06 13:38 47.48861 8.37773 9866 ft 280 kts 194°
2026-05-06 13:39 47.47084 8.36600 9865 ft 284 kts 217°
2026-05-06 13:39 47.45720 8.34493 9866 ft 285 kts 230°
2026-05-06 13:39 47.44465 8.32219 9865 ft 286 kts 230°
2026-05-06 13:39 47.43216 8.29941 9872 ft 285 kts 230°
2026-05-06 13:40 47.41968 8.27669 9874 ft 285 kts 230°
2026-05-06 13:40 47.40716 8.25401 9879 ft 285 kts 230°
2026-05-06 13:40 47.39463 8.23139 9878 ft 285 kts 230°
2026-05-06 13:40 47.38188 8.20851 9877 ft 285 kts 230°
2026-05-06 13:41 47.36928 8.18593 9879 ft 285 kts 230°
2026-05-06 13:41 47.35669 8.16335 9884 ft 285 kts 229°
2026-05-06 13:41 47.34425 8.14107 9880 ft 285 kts 229°
2026-05-06 13:41 47.33146 8.11818 9887 ft 286 kts 229°
2026-05-06 13:42 47.31881 8.09559 9883 ft 286 kts 229°
2026-05-06 13:42 47.30617 8.07300 9897 ft 285 kts 229°
2026-05-06 13:42 47.29371 8.05072 9897 ft 286 kts 229°
2026-05-06 13:42 47.28084 8.02847 9896 ft 285 kts 224°
2026-05-06 13:43 47.26533 8.01051 9896 ft 284 kts 208°
2026-05-06 13:43 47.24679 8.00104 9896 ft 283 kts 187°
2026-05-06 13:43 47.22697 8.00271 9896 ft 284 kts 166°
2026-05-06 13:43 47.20969 8.01551 9898 ft 285 kts 140°
2026-05-06 13:44 47.19766 8.03856 9895 ft 288 kts 116°
2026-05-06 13:44 47.19312 8.06718 9891 ft 291 kts 92°
2026-05-06 13:44 47.19504 8.09731 9884 ft 293 kts 84°
2026-05-06 13:44 47.19763 8.12707 9829 ft 294 kts 84°
2026-05-06 13:45 47.20025 8.15680 9704 ft 293 kts 84°
2026-05-06 13:45 47.20547 8.21608 8812 ft 293 kts 83°
2026-05-06 13:45 47.20803 8.24554 8312 ft 287 kts 83°
2026-05-06 13:46 47.21051 8.27419 7740 ft 276 kts 83°
2026-05-06 13:46 47.21289 8.30161 7180 ft 267 kts 83°
2026-05-06 13:46 47.21520 8.32836 6809 ft 256 kts 83°
2026-05-06 13:46 47.21733 8.35325 6576 ft 236 kts 83°
2026-05-06 13:47 47.21927 8.37616 6424 ft 216 kts 83°
2026-05-06 13:47 47.22107 8.39752 6317 ft 208 kts 83°
2026-05-06 13:47 47.22285 8.41849 6201 ft 206 kts 83°
2026-05-06 13:47 47.22460 8.43930 6091 ft 205 kts 83°
2026-05-06 13:48 47.22616 8.46008 6023 ft 204 kts 89°
2026-05-06 13:48 47.22326 8.48027 6025 ft 203 kts 108°
2026-05-06 13:48 47.21892 8.50006 5987 ft 204 kts 108°
2026-05-06 13:48 47.21651 8.52042 5820 ft 203 kts 86°
2026-05-06 13:49 47.22146 8.53952 5664 ft 203 kts 52°
2026-05-06 13:49 47.23281 8.55130 5526 ft 202 kts 18°
2026-05-06 13:49 47.24669 8.55183 5398 ft 202 kts 343°
2026-05-06 13:49 47.25833 8.54102 5274 ft 199 kts 310°
2026-05-06 13:50 47.26401 8.52299 5148 ft 195 kts 278°
2026-05-06 13:50 47.26226 8.50343 5046 ft 196 kts 247°
2026-05-06 13:50 47.25364 8.48812 4989 ft 197 kts 219°
2026-05-06 13:50 47.24272 8.47576 4993 ft 199 kts 218°
2026-05-06 13:51 47.23178 8.46337 4983 ft 199 kts 218°
2026-05-06 13:51 47.22091 8.45101 4806 ft 193 kts 218°
2026-05-06 13:51 47.21054 8.43921 4553 ft 181 kts 218°
2026-05-06 13:51 47.20083 8.42817 4314 ft 174 kts 217°
2026-05-06 13:52 47.19135 8.41743 4032 ft 168 kts 218°
2026-05-06 13:52 47.18275 8.40760 3808 ft 148 kts 218°
2026-05-06 13:52 47.17489 8.39870 3542 ft 137 kts 218°
2026-05-06 13:52 47.16756 8.39040 3314 ft 130 kts 218°
2026-05-06 13:53 47.16036 8.38222 3130 ft 131 kts 218°
2026-05-06 13:53 47.15322 8.37408 2932 ft 128 kts 219°
2026-05-06 13:53 47.14635 8.36627 2737 ft 126 kts 219°
2026-05-06 13:53 47.13948 8.35847 2534 ft 123 kts 219°
2026-05-06 13:54 47.13274 8.35086 2344 ft 122 kts 219°
2026-05-06 13:54 47.12606 8.34325 2152 ft 121 kts 219°
2026-05-06 13:54 47.11935 8.33563 1965 ft 124 kts 219°
2026-05-06 13:54 47.11252 8.32789 1770 ft 124 kts 219°
2026-05-06 13:55 47.10565 8.32009 1582 ft 124 kts 219°
2026-05-06 13:55 47.09890 8.31244 1411 ft 120 kts 219°
2026-05-06 13:55 47.09365 8.30654 1407 ft 56 kts 217°
2026-05-06 13:55 47.09105 8.30359 1406 ft 42 kts 217°
2026-05-06 13:56 47.09067 8.30292 1407 ft 3 kts 315°
2026-05-06 13:56 47.09081 8.30272 1404 ft 3 kts 316°
2026-05-06 13:56 47.09103 8.30215 1404 ft 10 kts 290°
2026-05-06 13:56 47.09121 8.30134 1405 ft 8 kts 287°
2026-05-06 13:57 47.09132 8.30093 1406 ft 0 kts 297°
2026-05-06 13:58 47.09154 8.30080 1408 ft 5 kts 17°
2026-05-06 13:58 47.09172 8.30095 1410 ft 0 kts 28°
2026-05-06 13:59 47.09180 8.30086 1410 ft 0 kts 310°